Theta_e
303 303 303 303 303 302 302 303 303 303 303 303 303 303 303 302 302 302 302 302 302 302 302 302 303 303 304 304 304 304 303 304 303 304 304 304 304 304 304 304 304 304 304 304 305 305 305 305 304 304 304 304 305 305 305 306 306 306 306 306 306 306 306 307 307 307 307 308 310
302 302 303 303 303 303 302 302 303 303 303 303 303 303 303 303 302 302 302 302 302 302 302 302 303 303 303 303 303 303 303 303 303 303 303 303 304 304 304 304 304 304 304 304 304 304 304 304 304 304 304 304 304 304 304 306 306 306 305 305 305 306 306 306 306 307 307 307 309
302 302 302 302 302 302 302 302 302 302 303 303 303 303 303 303 303 303 302 302 303 303 303 302 303 303 303 303 303 303 303 303 303 303 303 303 303 303 304 303 304 304 304 304 304 304 304 304 304 304 303 303 303 303 303 304 304 304 304 304 305 305 305 306 306 306 307 307 308
302 302 302 302 302 302 302 302 302 302 302 303 303 303 303 303 303 303 303 303 303 303 303 303 303 303 304 303 303 303 303 304 304 303 303 303 303 303 303 303 303 303 303 304 304 304 304 304 303 303 303 303 303 303 303 303 304 304 303 304 304 304 305 305 306 306 307 307 308
302 302 302 302 302 302 302 302 302 302 302 303 302 303 303 303 303 303 303 303 303 303 303 304 303 303 303 304 303 303 303 303 304 303 303 303 303 303 303 303 303 303 303 304 304 304 304 304 303 303 303 303 303 303 303 303 303 303 303 303 304 304 305 305 305 306 306 307 308
301 302 302 302 302 302 302 302 302 302 302 302 302 302 302 302 302 302 302 302 303 303 304 304 304 304 304 304 303 303 303 303 303 303 303 302 302 302 303 303 303 303 303 303 304 304 304 304 303 302 302 302 303 303 303 303 303 303 303 303 303 304 304 304 305 306 306 307 307
301 301 301 302 302 302 302 302 302 302 302 302 302 302 301 302 302 302 302 302 303 303 303 304 304 304 303 303 303 303 302 302 302 302 302 302 302 302 302 303 303 303 303 303 303 303 303 304 303 302 302 302 302 302 303 303 303 302 302 302 303 303 304 305 305 306 306 306 306
301 301 301 301 301 301 301 302 302 301 301 301 301 301 301 302 302 302 302 302 302 302 303 303 303 303 303 303 303 303 303 303 302 302 302 302 302 302 302 302 303 303 303 303 303 303 303 303 302 302 302 302 301 302 302 303 303 303 302 302 302 303 304 306 306 307 306 306 307
300 300 301 301 301 301 301 301 301 301 301 300 301 301 301 302 302 302 302 302 302 303 303 303 303 303 303 303 303 302 302 302 302 302 302 302 302 302 302 302 302 303 303 303 303 303 303 302 302 302 302 301 301 301 302 302 302 302 302 302 302 303 303 304 305 306 306 306 306
300 300 300 300 301 301 301 301 301 301 300 300 301 301 301 302 302 301 301 302 302 303 303 303 303 303 303 302 302 302 302 302 302 301 301 302 302 302 302 302 302 302 302 303 303 303 302 302 302 302 302 302 301 301 301 302 301 301 301 301 302 302 303 303 304 305 305 306 306
300 300 300 300 300 301 301 301 300 300 300 300 300 301 301 301 301 301 301 302 302 302 302 302 302 302 302 302 302 302 302 302 302 301 301 301 302 302 302 302 302 302 302 302 302 302 302 302 301 301 302 302 301 301 301 301 301 301 301 301 302 302 302 302 303 304 304 305 305
300 300 300 300 300 300 300 300 300 300 300 300 300 300 300 300 301 301 301 301 301 301 301 302 302 302 301 301 302 302 302 302 301 302 302 301 302 302 302 302 302 302 302 302 302 302 302 301 301 301 301 301 301 301 301 301 301 301 301 301 301 301 302 302 303 303 304 304 305
300 300 300 300 300 300 300 300 299 299 300 300 299 300 300 300 301 301 301 300 300 300 301 301 301 301 301 301 301 301 301 302 302 301 301 301 301 302 302 302 302 302 302 302 302 302 302 301 301 301 301 301 301 301 301 301 301 300 300 300 301 301 301 302 302 303 303 304 304
300 300 300 300 300 300 299 299 299 299 299 299 299 300 300 300 300 301 300 300 300 300 300 300 300 301 301 301 301 301 301 301 301 301 301 301 301 301 301 301 301 301 302 302 302 302 302 301 301 301 301 301 301 301 301 301 300 301 300 300 300 300 301 301 302 302 303 303 304
299 299 299 299 299 299 299 299 299 299 299 299 299 299 300 299 300 300 300 300 300 300 300 300 300 300 300 301 301 301 301 301 301 301 301 301 301 301 301 301 301 301 301 301 301 302 302 301 301 301 301 301 301 301 301 301 300 300 300 300 300 300 301 301 302 302 303 303 304
299 299 299 299 299 299 299 299 299 299 299 299 299 299 299 299 300 300 300 300 300 299 299 299 299 299 300 300 300 300 300 300 301 301 301 300 301 301 301 301 301 301 301 301 301 301 301 301 301 301 301 301 301 301 301 301 301 301 300 300 300 301 301 301 302 302 303 303 303
299 299 299 299 299 299 299 299 299 299 299 299 299 299 299 299 299 299 300 299 299 299 299 299 299 299 299 300 300 300 300 300 300 300 300 300 300 300 300 301 301 301 301 301 301 301 301 301 302 302 302 301 301 301 301 301 301 301 301 301 301 302 302 302 303 303 303 304 304
298 299 299 299 299 299 299 299 299 299 299 299 299 299 299 299 299 299 299 299 299 299 298 298 299 299 299 299 299 299 299 299 299 299 300 300 300 300 300 300 300 301 300 301 300 301 301 301 301 302 302 301 301 301 301 301 301 301 302 302 303 303 303 303 304 304 304 304 304
298 299 299 299 299 299 299 299 299 299 299 299 299 298 298 299 299 298 298 299 299 299 298 298 298 298 298 298 298 299 299 298 299 299 299 299 300 300 300 300 301 300 300 300 300 301 301 301 301 301 301 301 301 301 301 301 301 302 302 303 303 303 303 304 304 304 304 304 305
298 298 298 299 299 299 299 299 299 299 299 298 298 298 298 298 299 298 298 298 299 298 298 298 298 298 298 298 298 298 299 299 299 298 298 299 299 300 300 300 300 300 300 300 300 300 300 301 301 301 301 301 301 301 301 301 301 301 302 302 303 303 303 303 303 304 304 305 305
299 299 299 299 299 299 299 299 299 299 298 298 298 298 299 299 299 298 298 299 299 298 298 298 298 298 298 298 298 298 299 299 299 299 299 298 299 299 299 300 300 300 300 300 300 300 300 300 300 301 301 301 301 301 301 301 301 302 302 302 302 303 303 303 303 304 304 305 305
299 299 299 299 299 299 299 299 299 299 298 298 298 299 299 299 299 299 299 299 298 298 298 298 298 298 298 298 298 298 298 299 299 299 299 298 298 298 299 299 299 299 299 299 300 300 300 300 300 301 301 301 301 301 301 301 301 301 302 302 302 303 303 303 303 303 304 304 305
299 299 299 299 299 299 299 299 299 298 298 299 298 299 299 299 299 299 299 299 298 298 298 298 298 298 298 298 298 298 298 298 299 299 299 299 298 298 299 299 299 299 299 299 299 299 299 299 300 300 300 300 300 301 301 300 300 300 300 301 301 302 302 302 302 303 304 304 304
299 299 299 299 299 299 299 298 298 298 298 298 298 298 298 298 299 299 298 298 298 298 298 298 298 298 298 298 298 298 298 298 298 298 298 298 298 298 298 298 298 298 298 299 299 299 300 299 299 300 300 300 300 300 300 300 300 300 300 301 301 301 301 301 302 302 303 304 304
299 299 299 298 298 298 298 298 298 298 298 298 298 298 298 298 298 298 298 298 298 298 298 298 298 298 298 298 298 298 298 298 298 298 298 298 298 298 298 298 298 298 298 299 301 302 302 302 300 300 300 300 300 300 300 300 300 301 301 301 300 300 300 300 301 302 303 304 304
299 299 298 298 298 298 298 298 298 298 298 298 298 298 298 298 298 298 298 298 298 298 299 298 298 298 298 298 298 298 298 298 298 298 298 298 298 298 298 298 298 298 299 300 302 303 303 303 303 302 301 300 301 301 301 301 301 301 301 301 300 299 299 300 301 302 302 303 303
298 298 298 298 297 298 298 298 298 298 298 298 298 298 298 298 298 298 298 298 298 298 298 298 298 298 298 298 297 297 297 298 298 298 298 298 298 298 298 298 298 298 299 301 303 303 304 304 304 304 302 301 301 301 300 300 301 301 301 300 300 299 300 300 301 302 302 301 302
297 297 297 297 297 297 297 298 298 298 298 298 298 298 298 298 298 298 298 298 298 298 298 298 298 298 298 298 297 297 298 298 298 298 298 298 298 298 298 298 298 299 300 302 303 304 304 304 305 305 304 303 301 301 301 301 301 301 301 300 300 300 300 301 301 301 301 300 300
297 297 297 297 297 297 297 297 297 298 298 297 298 298 298 298 298 298 298 298 298 298 297 297 298 298 298 298 298 298 298 298 298 298 298 298 298 298 298 298 299 300 301 303 304 304 304 304 305 305 305 304 302 301 301 301 301 301 301 301 301 301 302 302 302 301 300 300 300
297 297 297 296 296 297 297 297 297 298 297 298 298 298 298 297 297 297 297 297 297 297 297 298 298 298 297 298 298 298 298 298 298 298 298 298 298 298 298 299 299 300 301 303 304 304 304 304 305 305 305 304 303 302 302 302 302 302 301 302 302 302 302 301 301 301 300 299 299
297 296 296 296 296 297 297 297 297 297 298 298 297 297 297 297 297 297 297 297 297 298 298 298 298 297 297 298 298 298 298 298 298 298 298 298 298 299 299 299 299 300 301 303 304 304 304 304 305 305 305 305 303 302 302 302 302 301 301 302 302 302 302 302 301 300 300 299 299
296 296 296 296 296 297 297 297 297 297 297 297 297 297 297 297 297 297 298 298 298 298 298 298 297 297 298 298 298 298 298 298 298 298 298 298 299 299 299 299 299 299 301 303 304 304 304 304 305 305 305 305 304 303 302 302 302 302 301 301 301 302 302 301 301 300 300 299 299
296 296 296 296 297 297 297 297 297 297 297 297 297 297 296 297 297 297 297 298 298 297 297 297 297 297 297 297 297 297 298 297 298 298 298 299 299 299 299 299 299 300 301 303 304 304 304 304 304 304 304 305 304 303 302 301 302 301 301 301 301 302 302 301 301 300 299 299 299
296 296 296 296 297 297 297 297 297 297 296 296 296 296 297 296 297 297 297 298 298 298 297 297 297 297 297 297 297 297 297 297 298 298 298 299 299 299 299 298 298 300 302 303 304 304 304 304 303 303 304 305 304 303 301 300 300 300 300 300 300 301 301 301 300 300 300 300 300
296 296 296 296 297 297 296 296 296 296 296 296 296 296 296 296 296 297 297 298 298 298 298 298 298 298 298 298 298 297 297 297 297 297 297 298 298 298 298 298 299 300 302 303 304 304 304 303 303 303 303 304 303 302 301 300 299 299 299 299 299 300 300 301 301 301 301 301 301
296 296 296 296 296 296 296 296 296 296 296 296 296 296 296 296 297 297 297 298 298 298 297 297 298 297 297 297 297 297 297 297 297 297 297 298 298 298 298 298 299 300 302 303 304 304 304 304 303 304 304 303 302 301 300 300 299 299 299 299 299 299 300 300 301 301 301 301 301
297 297 296 296 296 296 296 295 296 295 295 295 295 296 296 296 297 297 297 298 297 297 297 297 297 297 297 297 297 297 297 297 297 297 297 298 298 298 298 298 299 300 301 303 303 304 304 304 304 304 303 303 302 301 300 299 299 299 299 299 299 299 299 300 300 300 301 301 301
297 297 296 296 295 295 295 296 295 295 295 295 295 296 296 296 296 297 297 298 297 297 297 297 297 297 297 297 297 297 298 298 298 297 297 298 298 298 298 298 298 299 300 302 302 303 303 303 303 303 302 301 301 300 299 299 299 299 299 299 299 299 299 299 299 299 300 300 301
297 297 296 296 295 295 295 295 295 295 295 295 295 296 296 296 296 297 297 298 297 297 297 297 297 297 298 298 298 297 298 298 298 298 298 297 298 299 299 299 299 299 300 301 302 302 302 303 303 303 302 300 300 299 299 299 298 298 298 298 298 298 298 298 298 298 299 300 301
297 296 296 295 295 295 295 295 295 295 295 295 295 296 296 296 297 297 298 298 297 298 297 297 298 298 298 298 298 298 297 298 298 298 298 298 299 300 301 300 299 299 300 301 301 302 302 303 303 303 302 300 299 299 298 298 298 298 298 298 298 297 298 297 298 298 298 299 301
296 296 296 295 295 295 295 295 295 295 296 296 296 296 296 297 297 297 298 297 298 298 298 297 298 298 299 299 298 298 297 297 298 298 298 298 299 300 300 300 299 300 300 300 301 302 302 303 303 303 302 300 299 299 298 298 297 297 297 297 297 297 297 297 297 298 298 298 299
Wind_Speed
13 13 12 11 11 10 10 9 10 10 10 10 10 10 10 10 11 10 10 10 10 10 10 10 10 11 12 15 16 16 16 17 17 17 18 18 18 17 17 17 16 16 16 16 16 14 13 13 12 10 9 9 9 10 10 9 10 10 11 11 10 11 12 14 14 15 16 16 12
15 14 14 13 12 11 10 10 10 10 10 10 10 10 11 10 11 11 11 11 11 11 11 10 11 13 14 16 17 17 17 17 18 18 18 18 18 18 18 17 17 17 16 17 16 14 12 12 12 10 9 9 9 10 10 9 9 11 12 13 11 11 11 12 13 14 15 16 13
15 14 14 13 13 12 11 10 10 12 12 12 11 11 11 11 11 11 11 11 12 12 12 11 12 14 16 17 16 16 16 16 17 18 17 17 18 18 18 17 17 18 17 16 15 14 13 13 11 10 9 9 10 10 10 11 11 11 12 13 11 10 9 10 11 12 12 11 13
15 15 14 14 15 15 14 12 13 14 14 12 12 12 12 11 11 11 11 12 13 13 12 12 12 13 14 15 16 16 17 17 18 18 18 17 18 19 19 19 19 19 18 17 16 16 15 14 11 10 9 11 12 11 10 10 11 11 11 11 10 10 10 9 10 10 9 10 11
15 15 14 14 16 16 15 14 15 15 14 12 12 12 11 11 11 11 11 12 12 12 13 14 14 13 13 15 17 18 19 19 19 18 17 17 18 18 18 19 19 19 18 17 17 16 16 16 12 10 10 11 10 10 10 12 12 12 11 9 9 9 9 9 9 9 9 9 9
15 15 15 15 17 16 16 15 16 16 15 13 14 14 14 12 12 12 13 13 14 15 16 17 16 15 15 17 18 19 19 18 18 17 17 17 17 17 18 19 19 18 17 17 17 17 17 16 12 11 10 10 10 11 12 13 13 12 11 10 10 9 10 10 9 9 10 11 11
16 17 17 17 18 17 17 16 16 16 16 15 17 18 18 16 16 17 17 17 16 16 16 15 15 15 16 17 17 17 17 17 17 18 18 17 17 18 18 18 19 19 19 18 18 17 16 15 12 11 10 10 10 11 12 13 12 12 12 11 10 9 10 11 10 9 10 13 15
17 17 18 18 18 18 19 19 18 17 16 15 16 19 21 21 21 21 20 19 17 16 15 14 16 17 18 17 17 17 17 18 18 18 18 17 18 19 18 18 18 19 19 19 18 17 16 14 12 11 11 10 9 10 12 13 13 13 13 13 11 10 9 9 9 10 11 14 16
16 17 18 18 18 18 19 19 19 18 18 18 19 20 21 21 22 21 20 18 17 16 16 15 17 19 19 19 19 18 18 17 18 18 17 17 17 18 18 17 17 18 18 18 18 18 18 14 12 11 11 10 10 11 12 13 13 13 13 13 12 12 11 11 11 12 13 14 15
17 17 17 17 18 18 19 19 19 19 20 20 21 21 21 21 21 20 18 16 16 16 17 16 18 19 20 20 19 19 18 17 17 18 18 17 18 18 18 16 17 17 17 17 17 17 17 15 13 13 12 12 13 14 14 14 14 14 14 12 12 13 15 14 15 15 15 15 15
18 18 17 17 18 18 18 19 18 18 18 19 20 20 21 20 20 19 18 16 17 18 19 18 19 19 20 19 19 19 19 17 17 17 18 19 18 18 18 18 18 18 18 17 16 15 14 13 14 15 16 15 15 15 16 16 16 15 15 13 14 15 17 17 17 16 15 15 16
18 18 18 17 18 18 18 18 17 17 17 18 19 19 19 18 19 19 18 18 19 19 19 18 19 19 19 17 18 18 18 19 19 19 19 19 19 19 19 19 19 19 19 18 16 14 13 14 15 17 18 18 15 14 15 16 16 16 16 16 16 16 17 17 17 16 14 15 15
18 18 18 18 18 18 18 17 16 16 16 18 18 18 17 17 18 18 18 19 19 18 17 17 18 18 18 17 17 17 17 18 19 19 18 18 18 18 18 18 19 19 19 18 16 15 14 15 17 18 19 18 16 15 15 17 16 16 16 16 17 17 17 17 17 16 15 15 15
18 18 18 18 18 18 17 16 15 15 15 17 17 17 16 16 17 17 17 17 18 17 17 17 17 16 16 17 17 18 18 18 19 19 20 20 19 19 19 18 18 18 18 16 16 16 17 17 18 18 19 19 18 17 17 17 17 16 16 16 16 17 17 17 17 16 16 15 15
18 18 18 18 18 17 16 16 14 14 15 17 16 16 16 15 16 16 16 17 17 17 16 16 16 16 17 18 19 19 19 19 19 20 20 20 20 20 20 19 19 18 18 17 17 17 17 18 18 18 18 18 18 18 18 18 17 17 17 16 16 16 17 17 17 16 15 14 15
18 18 18 18 18 17 16 16 14 14 15 16 16 16 16 15 15 15 16 17 16 16 15 16 16 16 16 18 19 19 19 19 19 19 20 20 20 20 20 20 19 19 18 18 17 17 17 17 17 17 17 17 17 17 17 18 18 18 18 17 16 16 16 17 16 15 15 15 15
18 18 18 18 19 18 18 17 15 15 15 17 18 17 17 16 15 15 16 17 16 16 17 18 17 17 17 17 17 18 18 18 18 18 18 18 19 19 20 19 19 19 19 18 18 18 18 18 17 16 15 15 15 16 17 17 18 18 18 18 16 15 15 16 15 14 14 15 15
19 19 19 19 19 19 19 19 18 17 18 19 19 18 17 16 16 16 17 18 18 19 20 20 19 18 18 19 18 17 16 17 18 18 18 18 18 18 18 19 19 19 18 18 18 18 18 18 17 16 15 14 15 16 16 17 17 18 18 17 15 15 14 15 15 14 14 15 15
19 19 19 19 19 20 20 20 20 20 19 19 19 18 18 19 19 19 18 19 19 21 21 22 21 20 20 21 20 19 18 18 19 20 20 19 19 18 18 18 18 18 18 18 18 18 18 18 18 17 16 16 16 16 17 17 17 17 17 16 15 14 14 15 15 15 15 15 15
19 19 19 19 20 20 20 20 20 20 20 19 19 20 20 20 20 20 20 21 21 21 22 22 21 21 21 21 21 21 20 18 19 20 21 20 19 19 18 18 18 17 17 17 17 17 18 18 18 18 17 17 18 17 18 18 18 17 17 15 13 13 14 16 16 16 15 14 13
19 19 19 19 20 20 20 20 20 20 20 20 20 21 21 21 21 21 21 22 22 22 22 22 22 22 22 21 21 21 20 18 19 20 20 20 20 19 19 18 18 17 17 16 16 16 17 18 18 17 17 17 17 17 17 17 17 17 16 13 13 13 15 17 17 17 15 13 12
19 19 19 20 20 20 20 20 20 20 20 20 21 21 21 22 22 22 22 22 22 21 21 21 21 21 21 21 20 20 19 17 18 18 19 19 19 18 18 17 17 17 17 16 15 15 16 17 18 18 17 17 17 17 18 18 17 16 16 15 15 15 16 17 18 17 15 13 12
19 19 19 19 20 20 21 21 20 20 20 21 21 21 22 22 22 22 22 22 22 22 21 20 20 20 20 20 20 19 19 18 18 18 18 19 18 18 18 17 17 17 17 16 15 15 15 16 17 18 17 17 18 18 19 19 18 16 15 15 16 17 17 17 17 16 15 13 12
20 20 19 17 19 20 21 21 21 21 21 21 22 22 22 22 22 23 23 23 23 23 22 20 19 20 20 20 20 19 19 18 19 19 19 19 18 18 17 16 16 16 16 15 15 15 16 14 15 15 16 16 16 17 18 18 17 16 15 16 17 16 16 16 16 15 14 14 13
21 21 21 20 21 21 21 21 21 21 21 21 22 22 22 22 22 22 22 23 23 23 23 23 22 21 20 19 19 19 18 18 19 19 18 18 17 17 16 15 15 14 14 14 18 21 22 19 16 14 13 13 14 15 16 16 16 16 15 16 16 15 15 14 15 15 15 15 15
21 21 22 22 22 22 22 22 21 22 22 22 22 22 22 22 22 22 22 23 23 23 23 23 22 21 20 19 18 18 17 17 17 17 17 16 17 17 16 15 14 13 13 15 20 23 25 25 23 20 16 12 13 13 14 14 15 15 15 15 15 14 13 13 14 15 16 16 17
21 22 22 22 22 22 22 22 22 22 22 22 23 23 23 22 21 22 23 23 23 22 22 21 20 19 19 17 18 18 17 16 16 17 17 17 17 17 16 15 14 13 14 17 21 24 25 26 26 24 20 15 14 13 13 13 14 14 14 14 13 13 13 14 15 15 15 15 15
22 22 22 22 22 22 22 22 22 22 23 23 23 23 23 23 23 23 23 23 22 21 20 18 17 15 14 13 15 16 17 17 16 16 16 17 17 17 17 15 14 14 16 20 23 25 25 25 26 25 24 20 16 14 13 13 13 13 12 11 11 12 13 14 14 14 13 13 12
23 23 23 23 23 23 23 23 23 23 23 23 23 23 23 23 23 23 23 23 22 21 18 16 14 12 12 13 15 16 17 17 17 16 16 17 17 17 16 16 15 16 19 23 25 26 26 26 26 26 25 23 16 11 9 9 10 10 10 9 9 11 12 13 13 12 11 11 10
23 23 23 23 23 23 23 23 24 24 23 22 22 23 23 23 23 23 23 22 22 20 18 15 14 14 14 16 16 15 15 15 15 15 16 17 18 17 17 16 15 16 18 23 25 26 26 25 25 25 26 25 18 12 8 7 8 9 9 9 10 12 14 15 14 13 11 10 9
23 23 23 23 24 24 24 24 24 24 23 22 23 23 23 23 23 22 22 21 20 19 18 17 17 18 18 17 16 15 15 14 14 15 16 17 18 18 17 17 16 16 18 22 25 26 26 25 24 24 24 25 20 14 10 9 9 8 8 9 11 13 15 14 13 12 11 10 10
23 23 23 24 24 24 24 25 24 24 24 24 24 23 23 23 22 22 21 20 19 19 19 18 18 19 19 18 17 16 16 15 15 15 15 16 17 17 17 17 16 16 17 21 24 25 26 25 23 22 23 24 21 17 13 11 10 9 9 10 12 14 15 14 12 11 11 11 11
23 23 23 24 24 25 25 25 24 24 24 24 23 23 23 22 22 21 21 20 18 18 18 18 18 18 18 18 17 17 16 16 16 16 17 17 17 17 17 16 15 16 18 21 23 24 25 24 22 22 22 24 21 18 15 14 11 9 9 10 12 14 15 15 13 12 11 11 11
23 23 24 24 24 24 24 24 24 24 23 23 23 23 22 21 21 21 20 19 18 17 17 17 17 17 17 17 17 17 16 16 16 16 16 16 16 17 17 16 13 14 17 20 22 23 24 24 22 22 22 23 19 17 16 16 13 11 11 12 13 13 13 13 12 11 11 11 11
23 23 24 24 24 24 24 25 24 24 24 23 23 22 22 21 21 20 20 19 19 18 18 17 17 17 16 16 16 16 17 17 17 17 17 16 16 17 17 17 15 16 18 20 21 23 23 23 22 21 21 20 16 14 14 15 14 13 13 13 13 13 13 12 11 10 10 10 11
23 24 24 25 25 25 25 25 25 24 24 24 23 22 22 21 20 19 19 20 19 19 19 18 18 17 17 17 16 16 17 17 17 17 17 17 17 17 17 17 17 18 19 20 21 22 23 23 22 21 19 16 13 12 12 12 11 12 12 13 13 13 13 12 10 10 10 10 11
23 24 24 25 25 25 25 25 25 25 24 24 23 22 21 20 19 19 19 19 19 19 19 18 18 17 17 17 16 16 16 17 17 17 17 17 17 17 17 17 17 17 18 20 20 21 22 22 21 20 17 13 11 11 11 10 9 9 10 11 12 12 12 11 10 10 11 11 12
24 24 24 24 24 25 25 25 24 24 24 24 22 21 20 19 18 18 18 18 18 18 18 18 18 17 17 17 17 17 17 17 17 17 17 17 17 16 17 17 17 16 17 18 19 20 21 21 21 20 17 13 11 10 10 9 9 9 9 9 10 10 10 9 9 9 10 12 14
24 24 24 24 24 24 25 24 24 24 24 23 22 21 20 19 18 18 18 18 17 17 17 18 18 18 18 18 17 17 17 17 17 17 17 17 16 16 17 16 16 16 16 17 18 19 20 20 21 20 19 15 12 10 9 8 9 9 9 9 9 9 10 9 8 8 9 12 16
24 24 24 24 24 24 24 24 24 24 23 22 22 21 21 20 19 19 18 17 17 17 17 17 18 18 18 18 17 17 17 17 16 16 17 16 16 17 17 16 16 15 16 17 18 18 19 19 20 20 19 15 12 10 9 8 8 9 9 9 8 9 9 9 9 9 9 11 14
23 23 23 23 23 23 24 24 24 24 23 22 21 21 20 20 19 19 18 16 16 16 15 15 17 18 18 18 16 16 16 17 16 16 16 16 16 16 16 15 15 15 15 15 17 17 18 18 19 19 18 14 11 10 9 8 7 8 9 9 9 8 8 9 9 9 9 10 11
Wind_Direction
298 296 294 293 291 290 288 287 286 284 284 283 284 283 283 284 284 284 284 283 283 283 282 281 281 281 281 281 281 280 280 279 278 277 276 275 274 274 273 273 272 272 271 269 268 266 265 265 267 268 268 267 266 265 264 263 263 264 264 264 264 265 266 267 267 268 268 266 261
298 296 294 293 291 290 288 287 285 284 284 283 283 283 283 283 283 283 283 283 282 283 283 282 281 281 282 282 281 281 280 280 279 278 278 277 276 275 275 274 273 271 270 270 268 266 265 264 265 266 267 268 268 267 265 263 262 262 262 261 262 262 263 263 264 265 266 268 264
297 296 294 292 291 290 289 288 287 287 287 286 286 285 284 283 283 282 282 282 282 282 282 281 281 281 281 281 280 279 279 278 278 277 277 276 276 275 274 274 273 272 270 268 266 264 262 262 262 262 263 265 267 268 268 267 266 265 264 262 261 260 260 260 260 261 262 263 263
297 296 294 293 292 291 291 290 290 290 290 289 288 286 284 283 282 281 280 280 280 279 279 278 278 278 278 278 278 277 276 275 275 275 274 274 274 274 274 274 273 272 271 269 266 264 262 261 261 260 261 263 266 267 269 270 270 269 268 266 265 263 262 261 261 260 260 260 261
297 296 296 295 295 294 293 292 292 292 291 289 288 286 284 282 281 279 279 278 277 276 276 277 277 277 277 277 278 277 277 276 275 275 274 273 273 273 273 273 272 272 271 270 268 266 264 263 262 262 262 263 264 265 267 270 270 270 270 268 266 265 264 263 262 261 260 260 260
299 298 297 296 296 295 294 293 293 292 291 290 288 286 284 283 282 281 280 279 279 279 279 279 279 278 278 278 278 278 278 277 276 275 274 274 273 273 272 272 272 271 271 270 269 267 265 263 263 262 261 262 262 263 265 267 268 268 268 267 265 264 263 262 262 262 261 261 261
301 300 300 299 298 297 296 295 294 293 292 289 287 286 285 284 283 283 283 282 282 282 281 281 279 279 279 278 278 278 278 278 277 276 276 275 274 274 273 272 272 272 272 271 270 269 266 264 263 262 261 261 262 263 263 264 265 266 267 267 266 265 264 263 263 263 263 263 263
302 301 300 300 299 298 297 296 295 294 292 290 288 288 287 286 286 285 284 283 282 282 281 280 279 279 279 278 278 277 277 277 276 276 275 275 275 275 275 274 274 273 273 273 272 271 270 268 265 264 263 263 263 264 264 265 266 268 269 270 270 269 268 267 266 265 264 264 264
302 301 300 300 299 298 298 297 296 294 293 291 290 290 289 288 287 286 285 283 282 281 281 280 279 279 278 277 277 276 276 276 275 274 274 273 273 273 273 273 273 272 272 272 272 272 271 270 267 265 264 263 264 265 267 269 270 272 272 273 273 272 272 271 270 268 267 266 265
302 301 301 300 299 298 298 298 296 295 293 292 291 291 290 289 288 287 286 284 283 282 281 280 280 279 278 278 277 276 276 275 275 275 274 273 273 272 272 271 271 270 270 270 270 270 270 269 267 265 264 264 264 265 267 268 270 271 271 272 273 273 274 273 271 270 269 268 267
302 301 301 300 300 300 299 299 297 296 294 293 293 292 291 290 289 289 288 287 286 285 283 282 282 281 280 279 278 278 277 276 275 274 274 274 273 273 273 272 271 270 269 268 268 267 267 266 266 265 265 264 264 264 265 265 266 267 267 268 269 271 271 271 270 270 269 268 268
302 302 301 300 301 300 300 299 297 296 295 293 293 293 292 291 291 291 290 289 288 287 286 285 284 283 282 280 280 279 278 277 276 276 275 274 274 273 273 272 271 271 270 269 267 265 264 262 263 263 263 263 262 262 262 262 263 264 264 265 266 267 267 267 267 267 267 267 268
303 302 302 301 301 300 299 298 297 295 294 294 294 293 293 292 292 292 292 291 290 290 289 288 287 286 284 283 282 281 280 279 278 277 277 276 275 274 273 272 272 272 271 270 268 266 263 262 261 261 261 261 260 260 259 260 260 260 261 263 264 264 265 266 266 266 265 265 266
303 302 302 301 301 300 299 298 296 295 294 294 294 293 293 293 293 293 292 292 292 291 291 291 289 288 287 286 285 284 282 281 279 278 277 277 276 275 274 272 271 271 271 271 270 269 267 265 264 264 264 263 263 262 262 260 259 259 259 260 261 263 265 266 266 265 265 264 264
302 302 302 301 301 300 298 297 296 294 294 294 293 293 293 293 292 292 292 292 291 291 291 290 289 288 287 287 286 285 284 282 281 279 278 277 276 276 275 273 271 270 269 268 268 268 267 266 265 265 265 266 267 267 266 265 263 261 259 258 259 261 263 265 266 266 266 266 266
302 302 301 301 300 299 298 297 295 294 294 294 294 294 293 293 292 292 291 291 290 289 288 287 286 286 286 285 284 284 283 281 280 278 277 275 274 274 274 274 272 271 269 267 266 266 265 265 263 262 262 264 266 268 268 268 266 264 261 259 259 260 261 263 265 266 267 268 268
302 302 302 301 300 299 298 297 296 295 295 294 295 294 293 293 292 292 291 290 289 288 287 285 285 284 283 283 282 281 280 279 278 277 276 274 273 272 272 273 273 273 271 270 268 266 265 264 263 261 260 260 262 264 265 265 265 264 262 261 260 260 260 262 263 265 266 267 267
302 302 301 301 300 300 299 299 298 296 296 296 295 295 294 294 293 292 291 290 290 289 288 287 286 284 283 283 282 280 279 278 278 277 276 275 274 272 271 270 271 272 272 272 271 269 267 265 264 263 261 259 258 259 260 261 262 262 261 260 259 259 259 260 261 262 263 263 263
301 302 302 301 301 301 301 300 299 299 298 297 297 296 296 295 294 294 293 292 292 291 290 290 288 287 285 285 283 282 280 279 278 278 277 277 276 275 272 270 269 268 269 270 271 271 270 268 267 265 263 261 258 257 257 258 259 260 260 259 258 257 257 258 259 259 259 259 259
302 302 302 303 303 303 303 302 301 300 300 299 299 298 297 297 296 296 295 295 294 294 293 292 291 290 288 287 285 284 283 281 280 279 279 278 278 277 276 274 271 268 266 265 266 267 269 269 267 266 264 262 260 258 258 258 258 258 258 257 256 256 256 257 258 258 258 258 259
302 303 303 304 304 304 304 304 303 302 301 300 300 299 299 299 298 297 297 297 296 296 295 293 292 290 289 288 286 285 284 282 281 280 280 278 277 277 277 277 275 272 269 265 264 264 265 267 267 265 263 261 260 259 258 257 257 257 257 257 256 256 257 258 258 257 257 257 258
303 304 305 305 306 305 305 304 304 303 302 301 301 301 300 300 299 298 298 297 297 295 294 293 291 290 288 287 285 284 283 281 280 280 279 278 277 276 276 276 276 275 273 270 266 264 264 264 264 263 261 259 258 257 257 256 256 256 256 257 257 257 257 257 257 255 254 252 252
305 305 306 306 306 306 305 304 303 302 302 302 302 302 301 301 300 299 298 297 296 294 293 291 290 288 287 285 284 282 281 280 278 277 276 276 276 275 275 275 274 274 273 271 268 264 262 260 259 258 257 256 255 255 255 255 255 255 255 256 256 257 258 258 257 255 251 246 245
306 307 307 307 307 306 304 303 303 302 302 303 303 303 303 302 301 299 298 296 295 293 292 291 290 289 287 286 284 282 281 279 278 276 274 273 273 273 272 271 270 269 269 268 265 261 258 256 255 253 252 251 252 253 254 254 254 254 255 256 256 257 259 260 260 258 254 248 244
307 307 307 306 306 305 304 303 303 303 304 304 305 304 304 302 301 299 297 295 294 293 292 291 291 290 289 287 285 284 282 281 279 277 274 271 270 269 268 267 266 265 265 264 262 260 258 255 253 251 250 250 251 252 253 252 253 253 254 255 257 258 260 262 262 260 256 251 245
308 308 307 306 305 304 303 303 304 304 305 305 305 304 303 302 300 298 297 295 294 293 293 292 292 291 291 289 288 287 285 284 280 277 274 270 268 266 265 264 263 263 262 261 260 260 259 257 255 254 253 252 252 252 251 251 251 251 252 254 256 258 259 260 259 256 253 249 245
308 307 306 305 305 304 304 305 305 306 306 305 305 304 302 301 299 298 297 296 295 294 293 293 292 292 292 291 289 288 286 284 281 277 273 270 268 266 264 263 262 261 260 260 260 260 259 259 257 256 254 252 251 250 251 252 251 251 251 251 252 253 254 254 253 251 250 249 248
307 306 305 305 305 305 306 306 306 306 305 305 304 303 302 301 299 298 297 296 295 295 294 293 293 292 291 290 288 286 284 282 279 276 273 269 267 265 264 262 261 260 260 260 259 259 259 259 258 256 253 250 248 249 251 254 254 252 249 247 247 247 248 248 247 248 249 251 254
306 306 306 306 307 307 307 307 306 306 305 304 303 302 302 301 300 299 298 297 296 295 294 293 292 290 288 286 284 283 282 280 278 275 272 269 267 265 263 262 261 261 261 261 260 259 257 256 257 257 255 252 248 245 246 252 256 256 253 247 243 243 244 245 244 245 248 253 257
307 307 307 308 308 307 307 307 306 306 305 304 303 303 302 301 301 300 299 299 297 295 294 292 291 288 285 283 282 280 279 277 276 274 272 270 267 264 263 261 261 262 263 263 263 260 258 255 256 258 259 258 254 248 240 241 249 255 258 259 255 253 251 248 246 245 248 253 259
308 308 308 308 308 307 307 307 306 306 306 305 304 304 303 302 302 301 301 299 298 296 294 292 289 287 284 282 281 278 276 274 272 272 271 270 268 265 263 262 262 262 264 265 265 263 260 256 255 257 260 262 259 254 243 233 235 241 249 258 261 260 259 257 255 254 255 258 262
309 309 309 308 307 307 307 307 307 307 306 306 305 304 304 303 302 302 301 300 298 297 295 293 290 287 285 284 281 278 276 273 271 270 268 268 267 266 264 262 261 261 261 262 263 262 260 257 256 257 259 262 261 257 249 241 237 237 241 248 254 258 260 263 266 267 266 266 266
309 309 308 307 307 307 308 308 308 307 307 306 305 305 304 304 303 302 302 301 300 298 295 293 290 288 286 284 282 280 277 274 272 270 269 267 267 266 265 263 261 259 258 258 259 259 259 258 258 259 260 261 260 257 253 248 244 241 240 243 248 252 256 261 265 269 270 269 268
309 308 308 308 308 309 309 309 308 307 307 306 305 304 304 304 304 304 303 302 300 297 294 291 289 287 284 283 281 279 277 275 272 270 268 267 266 266 265 263 261 258 257 257 258 258 259 259 259 261 261 260 258 255 253 251 248 246 245 247 249 252 255 259 264 267 268 267 266
309 308 309 310 310 310 310 309 308 307 306 305 304 304 304 304 304 303 302 301 299 296 293 290 288 285 283 282 279 278 276 274 272 270 268 266 265 264 263 262 261 259 258 258 259 260 260 259 259 259 259 258 255 251 249 250 249 250 251 253 257 259 261 263 263 263 263 263 262
309 310 311 312 312 311 310 309 308 307 306 305 304 304 304 304 303 301 300 299 297 294 292 290 288 286 284 282 280 278 276 275 274 272 269 266 265 263 263 262 261 260 260 260 261 261 260 260 258 256 254 254 251 249 248 249 250 252 254 257 260 262 264 264 262 261 260 260 260
310 311 312 313 312 311 310 309 308 307 306 305 304 304 303 302 301 299 298 298 295 293 291 289 288 286 284 282 280 278 276 275 274 273 271 268 266 264 263 262 261 261 260 261 261 262 262 261 258 255 251 249 248 249 249 250 251 253 255 257 259 261 262 262 262 260 259 257 257
311 312 313 312 311 310 309 308 307 307 306 306 305 304 302 301 299 298 297 297 294 292 291 289 288 286 284 282 280 278 276 274 273 272 271 269 267 265 264 263 262 261 260 260 261 262 263 263 261 257 252 247 247 248 250 252 252 253 255 256 258 258 258 259 259 259 258 255 254
313 313 313 311 310 309 308 307 307 307 306 306 305 304 302 300 298 297 297 296 294 292 290 289 287 286 284 282 280 278 275 273 272 271 270 269 267 265 264 264 262 261 260 260 260 261 262 263 263 260 257 252 249 248 249 250 251 253 255 257 258 258 258 256 256 256 256 255 255
313 313 312 310 309 308 308 307 307 307 306 305 304 302 301 300 298 297 296 295 293 292 290 289 288 287 285 283 280 277 274 272 270 269 269 268 267 265 265 264 263 262 261 260 260 260 260 261 262 261 260 257 253 250 249 248 250 252 254 256 257 257 256 255 254 253 254 256 257
313 312 311 310 309 308 308 308 307 306 305 303 301 300 300 299 298 297 296 294 294 293 292 290 290 289 288 285 281 277 273 271 269 267 266 266 266 266 265 264 263 262 261 260 259 259 258 258 259 259 259 258 256 254 251 247 248 250 251 252 252 253 254 253 252 251 250 251 254